This is the latest recevied weather packets stored in our database for station/object N7ZEF. If no packets are shown the sender has not sent any weather packets the latest 10 day(s).
| Time | Temp. | Humidity | Pressure | Rain* | Wind** | Luminosity | Snow |
|---|---|---|---|---|---|---|---|
| 1778074200 | -1.67° C | 100% | 1020.7 hPa | 0 mm | - | - | - |
| 1778073599 | -1.11° C | 100% | 1020.6 hPa | 0 mm | - | - | - |
| 1778072997 | -1.67° C | 100% | 1020.6 hPa | 0 mm | - | - | - |
| 1778072396 | -2.22° C | 100% | 1020.3 hPa | 0 mm | - | - | - |
| 1778071795 | -2.22° C | 100% | 1020.1 hPa | 0 mm | - | - | - |
| 1778071193 | -2.22° C | 100% | 1019.9 hPa | 0 mm | - | - | - |
| 1778070592 | -2.22° C | 100% | 1019.8 hPa | 0 mm | - | - | - |
| 1778069991 | -2.78° C | 100% | 1019.7 hPa | 0 mm | - | - | - |
| 1778069389 | -2.78° C | 100% | 1019.4 hPa | 0 mm | - | - | - |
| 1778068788 | -2.78° C | 100% | 1019.4 hPa | 0 mm | - | - | - |
| 1778068186 | -2.78° C | 100% | 1019.3 hPa | 0 mm | - | - | - |
| 1778067585 | -2.78° C | 100% | 1019.3 hPa | 0 mm | - | - | - |
| 1778066984 | -2.78° C | 100% | 1019.3 hPa | 0 mm | - | - | - |
| 1778066382 | -2.78° C | 100% | 1019.2 hPa | 0 mm | - | - | - |
| 1778065781 | -2.78° C | 100% | 1019 hPa | 0 mm | - | - | - |
| 1778065179 | -2.22° C | 100% | 1019 hPa | 0 mm | - | - | - |
| 1778064578 | -2.78° C | 100% | 1019 hPa | 0 mm | - | - | - |
| 1778063972 | -2.78° C | 100% | 1019 hPa | 0 mm | - | - | - |
| 1778063370 | -2.78° C | 100% | 1018.9 hPa | 0 mm | - | - | - |
| 1778062769 | -2.78° C | 100% | 1018.8 hPa | 0 mm | - | - | - |
| 1778062168 | -2.78° C | 100% | 1018.7 hPa | 0 mm | - | - | - |
| 1778061566 | -2.78° C | 100% | 1018.7 hPa | 0 mm | - | - | - |
| 1778060965 | -2.78° C | 100% | 1018.5 hPa | 0 mm | - | - | - |
| 1778060363 | -2.78° C | 100% | 1018.5 hPa | 0 mm | - | - | - |
| 1778059762 | -2.78° C | 100% | 1018.4 hPa | 0 mm | - | - | - |
* Rain latest hour (hover to see other rain measurements)
** Current wind speed in m/s (hover to see current wind gust speed)